When you browse on this site, cookies collect data to enhance your experience and personalize the content and advertising you see.
Visit our Privacy Policy to learn more. By continuing to use the site, you agree to this use of cookies and data.
  • In Slovakia
  • List of Countries
  • For 7 days
  • Water Temperature
  • Satellite Maps
  • Weather Map
  • Weather Widgets
  • user-avatar
    Login

    Hourly Weather Biskira

    Today, 9 December, Sunday

    Time Temperature Precipitation Wind Pressure Humidity
    00:00 +15°C° 0 mm 2 mps 760 mmHg 63%
    01:00 +15°C° 0 mm 2 mps 760 mmHg 64%
    02:00 +15°C° 0 mm 2 mps 760 mmHg 66%
    03:00 +14°C° 0 mm 2 mps 760 mmHg 67%
    04:00 +14°C° 0 mm 2 mps 760 mmHg 68%
    05:00 +14°C° 0 mm 2 mps 760 mmHg 69%
    06:00 +13°C° 0 mm 2 mps 761 mmHg 70%
    07:00 +15°C° 0 mm 2 mps 761 mmHg 64%
    08:00 +16°C° 0 mm 2 mps 761 mmHg 59%
    09:00 +17°C° 0 mm 2 mps 761 mmHg 53%
    10:00 +18°C° 0 mm 2 mps 761 mmHg 49%
    11:00 +19°C° 0 mm 2 mps 761 mmHg 45%
    12:00 +21°C° 0 mm 2 mps 760 mmHg 38%
    13:00 +21°C° 0 mm 2 mps 760 mmHg 37%
    14:00 +21°C° 0 mm 2 mps 760 mmHg 37%
    15:00 +21°C° 0 mm 2 mps 759 mmHg 36%
    16:00 +20°C° 0 mm 2 mps 759 mmHg 40%
    17:00 +19°C° 0 mm 2 mps 759 mmHg 44%
    18:00 +19°C° 0 mm 1 mps 760 mmHg 48%
    19:00 +17°C° 0 mm 2 mps 760 mmHg 48%
    20:00 +17°C° 0 mm 2 mps 760 mmHg 48%
    21:00 +17°C° 0 mm 2 mps 760 mmHg 48%
    22:00 +17°C° 0 mm 2 mps 760 mmHg 48%
    23:00 +16°C° 0 mm 2 mps 760 mmHg 48%

    Tomorrow, 10 December, Monday

    Time Temperature Precipitation Wind Pressure Humidity
    00:00 +16°C° 0 mm 2 mps 760 mmHg 48%
    01:00 +16°C° 0 mm 3 mps 760 mmHg 48%
    02:00 +14°C° 0 mm 3 mps 760 mmHg 48%
    03:00 +14°C° 0 mm 3 mps 760 mmHg 48%
    04:00 +14°C° 0 mm 3 mps 760 mmHg 48%
    05:00 +14°C° 0 mm 3 mps 760 mmHg 48%
    06:00 +13°C° 0 mm 3 mps 760 mmHg 48%
    07:00 +16°C° 0 mm 3 mps 760 mmHg 45%
    08:00 +17°C° 0 mm 3 mps 760 mmHg 41%
    09:00 +18°C° 0 mm 3 mps 761 mmHg 38%
    10:00 +19°C° 0 mm 3 mps 760 mmHg 35%
    11:00 +20°C° 0 mm 3 mps 760 mmHg 33%
    12:00 +21°C° 0 mm 3 mps 760 mmHg 31%
    13:00 +21°C° 0 mm 3 mps 759 mmHg 31%
    14:00 +21°C° 0 mm 3 mps 759 mmHg 31%
    15:00 +21°C° 0 mm 3 mps 759 mmHg 31%
    16:00 +20°C° 0 mm 2 mps 759 mmHg 35%
    17:00 +19°C° 0 mm 2 mps 759 mmHg 40%
    18:00 +17°C° 0 mm 2 mps 759 mmHg 45%
    19:00 +17°C° 0 mm 2 mps 759 mmHg 47%
    20:00 +16°C° 0 mm 2 mps 759 mmHg 50%
    21:00 +16°C° 0 mm 1 mps 759 mmHg 52%
    22:00 +15°C° 0 mm 1 mps 759 mmHg 55%
    23:00 +15°C° 0 mm 1 mps 759 mmHg 57%

    Day after tomorrow, 11 December, Tuesday

    Time Temperature Precipitation Wind Pressure Humidity
    00:00 +14°C° 0 mm 1 mps 759 mmHg 59%
    01:00 +14°C° 0 mm 1 mps 758 mmHg 61%
    02:00 +13°C° 0 mm 1 mps 758 mmHg 62%
    03:00 +12°C° 0 mm 0 mps 757 mmHg 63%
    04:00 +12°C° 0 mm 0 mps 757 mmHg 64%
    05:00 +11°C° 0 mm 0 mps 757 mmHg 64%
    06:00 +11°C° 0 mm 0 mps 757 mmHg 65%
    07:00 +13°C° 0 mm 0 mps 757 mmHg 59%
    08:00 +14°C° 0 mm 0 mps 758 mmHg 52%
    09:00 +16°C° 0 mm 0 mps 758 mmHg 46%
    10:00 +18°C° 0 mm 1 mps 757 mmHg 43%
    11:00 +19°C° 0 mm 1 mps 757 mmHg 40%
    12:00 +20°C° 0 mm 1 mps 756 mmHg 38%
    13:00 +20°C° 0 mm 1 mps 756 mmHg 37%
    14:00 +21°C° 0 mm 1 mps 756 mmHg 36%
    15:00 +21°C° 0 mm 1 mps 755 mmHg 35%
    16:00 +20°C° 0 mm 1 mps 755 mmHg 39%
    17:00 +18°C° 0 mm 1 mps 756 mmHg 44%
    18:00 +15°C° 0 mm 0 mps 756 mmHg 49%
    19:00 +15°C° 0 mm 0 mps 756 mmHg 49%
    20:00 +14°C° 0 mm 0 mps 756 mmHg 50%
    21:00 +14°C° 0 mm 0 mps 756 mmHg 51%
    22:00 +13°C° 0 mm 0 mps 756 mmHg 52%
    23:00 +13°C° 0 mm 0 mps 756 mmHg 52%

    12 December, Wednesday

    Time Temperature Precipitation Wind Pressure Humidity
    00:00 +13°C° 0 mm 0 mps 756 mmHg 53%
    01:00 +12°C° 0 mm 0 mps 756 mmHg 53%
    02:00 +12°C° 0 mm 0 mps 756 mmHg 53%
    03:00 +12°C° 0 mm 0 mps 755 mmHg 54%
    04:00 +11°C° 0 mm 0 mps 756 mmHg 54%
    05:00 +11°C° 0 mm 0 mps 756 mmHg 54%
    06:00 +11°C° 0 mm 0 mps 756 mmHg 54%
    07:00 +13°C° 0 mm 0 mps 756 mmHg 49%
    08:00 +15°C° 0 mm 0 mps 756 mmHg 43%
    09:00 +16°C° 0 mm 0 mps 757 mmHg 38%
    10:00 +19°C° 0 mm 1 mps 756 mmHg 35%
    11:00 +20°C° 0 mm 1 mps 756 mmHg 33%
    12:00 +21°C° 0 mm 1 mps 756 mmHg 31%
    13:00 +21°C° 0 mm 1 mps 755 mmHg 30%
    14:00 +21°C° 0 mm 1 mps 755 mmHg 30%
    15:00 +22°C° 0 mm 1 mps 755 mmHg 30%
    16:00 +20°C° 0 mm 1 mps 755 mmHg 33%
    17:00 +19°C° 0 mm 1 mps 755 mmHg 37%
    18:00 +16°C° 0 mm 1 mps 755 mmHg 41%
    19:00 +16°C° 0 mm 1 mps 755 mmHg 42%
    20:00 +15°C° 0 mm 1 mps 756 mmHg 43%
    21:00 +15°C° 0 mm 1 mps 756 mmHg 45%
    22:00 +14°C° 0 mm 1 mps 756 mmHg 46%
    23:00 +14°C° 0 mm 1 mps 756 mmHg 47%

    13 December, Thursday

    Time Temperature Precipitation Wind Pressure Humidity
    00:00 +14°C° 0 mm 1 mps 755 mmHg 48%
    01:00 +13°C° 0 mm 1 mps 755 mmHg 49%
    02:00 +13°C° 0 mm 1 mps 755 mmHg 49%
    03:00 +13°C° 0 mm 1 mps 755 mmHg 50%
    04:00 +13°C° 0 mm 1 mps 755 mmHg 50%
    05:00 +11°C° 0 mm 0 mps 755 mmHg 51%
    06:00 +11°C° 0 mm 0 mps 755 mmHg 51%
    07:00 +14°C° 0 mm 1 mps 756 mmHg 47%
    08:00 +16°C° 0 mm 1 mps 756 mmHg 42%
    09:00 +18°C° 0 mm 1 mps 756 mmHg 37%
    10:00 +19°C° 0 mm 1 mps 756 mmHg 35%
    11:00 +20°C° 0 mm 1 mps 756 mmHg 33%
    12:00 +21°C° 0 mm 1 mps 755 mmHg 31%
    13:00 +21°C° 0 mm 1 mps 755 mmHg 31%
    14:00 +21°C° 0 mm 1 mps 755 mmHg 30%
    15:00 +20°C° 0 mm 2 mps 755 mmHg 30%
    16:00 +20°C° 0 mm 1 mps 755 mmHg 34%
    17:00 +18°C° 0 mm 1 mps 755 mmHg 38%
    18:00 +16°C° 0 mm 1 mps 755 mmHg 43%
    19:00 +16°C° 0 mm 1 mps 756 mmHg 42%
    20:00 +16°C° 0 mm 1 mps 756 mmHg 42%
    21:00 +16°C° 0 mm 1 mps 757 mmHg 42%
    22:00 +15°C° 0 mm 2 mps 757 mmHg 43%
    23:00 +15°C° 0 mm 2 mps 757 mmHg 44%

    14 December, Friday

    Time Temperature Precipitation Wind Pressure Humidity
    00:00 +15°C° 0 mm 2 mps 756 mmHg 45%
    01:00 +15°C° 0 mm 2 mps 756 mmHg 48%
    02:00 +14°C° 0 mm 2 mps 756 mmHg 52%
    03:00 +14°C° 0 mm 2 mps 756 mmHg 55%
    04:00 +13°C° 0 mm 3 mps 756 mmHg 59%
    05:00 +13°C° 0 mm 3 mps 757 mmHg 62%
    06:00 +13°C° 0 mm 3 mps 757 mmHg 66%
    07:00 +14°C° 0 mm 3 mps 757 mmHg 62%
    08:00 +15°C° 0 mm 4 mps 758 mmHg 58%
    09:00 +17°C° 0 mm 4 mps 758 mmHg 54%
    10:00 +18°C° 0 mm 4 mps 758 mmHg 50%
    11:00 +20°C° 0 mm 4 mps 757 mmHg 47%
    12:00 +21°C° 0 mm 5 mps 757 mmHg 43%
    13:00 +21°C° 0 mm 5 mps 757 mmHg 42%
    14:00 +21°C° 0 mm 5 mps 757 mmHg 41%
    15:00 +21°C° 0 mm 5 mps 757 mmHg 39%
    16:00 +20°C° 0 mm 4 mps 757 mmHg 43%
    17:00 +19°C° 0 mm 4 mps 757 mmHg 47%
    18:00 +18°C° 0 mm 4 mps 758 mmHg 50%
    19:00 +18°C° 0 mm 3 mps 758 mmHg 51%
    20:00 +17°C° 0 mm 3 mps 758 mmHg 52%
    21:00 +17°C° 0 mm 3 mps 758 mmHg 53%
    22:00 +17°C° 0 mm 3 mps 758 mmHg 53%
    23:00 +16°C° 0 mm 3 mps 759 mmHg 54%
    Show more